User: anonymous   Login
Location: Schommer Observatory
(40.5200°N, 74.4500°W)
Time: 13:01:26
(UTC-04:00)
Language:

Hubble Space Telescope - Orbit

View from above orbital plane
View from above orbital plane
View from above satellite
View from above satellite

Ground track
Ground track

The orbit data is extracted from the following two-line orbital elements,

1 20580U 90037B   18262.23579954  .00000450  00000-0  16561-4 0  9999
2 20580  28.4688 213.3674 0002903  75.5187  62.3527 15.09095859359694
Epoch (UTC): 19 September 2018 05:39:33
Eccentricity: 0.0002903
inclination: 28.4688°
perigee height: 537 km
apogee height: 541 km
right ascension of ascending node: 213.3674°
argument of perigee: 75.5187°
revolutions per day: 15.09095859
mean anomaly at epoch: 62.3527°
orbit number at epoch: 35969

The dashed part of the orbit path shows where the satellite is in the earth's shadow,  

DLR